Theta_e
300 294 290 295 297 298 296 293 292 296 297 292 293 295 298 301 301 300 300 300 301 300 302 303 303 301 299 298 298 301 303 304 303 302 301 301 303 304 307 309 310 310 309 309
295 291 298 301 297 296 295 290 291 296 295 292 292 293 297 299 299 296 296 298 300 301 301 302 300 298 298 297 299 303 304 304 304 303 304 304 304 304 307 310 310 307 307 309
293 296 299 298 294 293 292 290 290 292 295 294 292 290 297 298 296 297 297 298 299 298 299 300 299 297 296 296 300 302 303 304 303 303 303 305 306 309 309 310 307 306 307 309
294 298 295 293 293 294 289 295 295 293 289 284 290 281 288 296 297 296 297 297 297 296 300 299 298 296 296 298 301 302 303 304 304 304 304 303 304 305 308 310 311 306 308 310
291 291 292 292 294 296 292 294 292 291 288 287 285 281 288 298 294 295 295 297 297 297 299 298 297 298 298 300 301 301 303 303 303 302 304 303 305 307 309 310 309 306 308 310
292 295 294 293 294 295 295 292 291 289 287 278 285 285 286 292 293 291 296 297 297 297 298 298 298 297 297 299 301 301 302 302 302 302 302 301 304 306 307 307 309 310 311 312
290 290 292 294 290 292 292 288 281 280 277 279 285 282 287 294 293 294 295 295 296 297 296 295 293 293 296 297 300 301 302 301 302 301 301 303 303 305 305 307 308 309 313 315
284 281 289 292 291 289 288 289 284 277 279 280 283 279 287 293 294 293 297 296 296 295 296 294 293 293 295 298 300 300 301 301 301 301 300 303 302 304 306 307 307 308 309 311
287 286 290 292 292 292 289 283 288 283 277 278 282 287 293 291 292 292 295 295 294 295 295 294 294 293 294 296 299 300 301 300 300 300 301 301 302 302 303 306 307 307 308 309
291 284 289 290 291 291 288 290 282 281 274 276 282 282 286 289 290 292 292 294 294 295 295 294 293 292 293 296 298 300 301 300 300 300 300 300 300 302 302 305 305 305 306 308
292 289 284 287 285 286 285 284 286 287 284 281 279 284 289 289 291 292 292 294 296 295 294 294 294 292 292 295 297 298 299 300 299 300 300 299 301 302 302 303 303 304 305 306
293 290 282 284 288 289 290 286 287 282 281 282 281 283 291 290 290 291 293 296 296 297 295 294 294 292 291 293 295 298 299 300 300 299 299 299 299 301 300 301 301 302 303 303
293 285 279 283 283 286 285 288 289 288 285 281 279 283 291 290 288 291 292 294 296 296 296 294 293 292 290 292 294 297 298 300 300 299 298 297 297 299 298 299 301 300 301 301
294 287 284 281 282 285 281 285 288 287 281 281 284 286 289 289 291 290 291 293 294 295 296 295 293 292 291 291 293 296 298 300 300 299 298 296 298 298 297 298 299 298 299 298
290 283 285 286 286 285 284 283 285 284 286 283 286 287 291 293 291 291 293 293 294 294 295 295 294 293 291 290 292 295 298 298 299 297 297 296 295 296 295 295 296 296 297 297
290 283 283 280 286 286 282 285 286 286 287 287 288 287 294 295 294 292 292 293 293 294 295 295 295 294 292 292 291 295 297 298 298 296 296 295 294 294 293 294 294 294 295 296
286 284 282 282 283 283 281 285 286 287 288 288 284 289 293 293 293 294 294 295 294 294 295 295 295 295 294 292 293 293 296 297 296 295 295 294 292 291 292 292 293 294 295 295
284 284 284 282 281 275 284 287 290 289 283 283 284 286 287 286 288 292 295 295 296 296 295 295 295 295 295 293 292 292 295 297 295 295 295 294 292 290 291 291 292 293 294 294
286 285 283 280 280 282 285 281 281 281 278 282 280 282 283 285 288 292 292 293 294 294 294 295 295 296 295 294 293 292 294 296 294 294 294 293 291 289 288 289 290 290 290 290
287 287 283 283 278 277 276 279 283 284 276 280 281 280 281 284 283 284 288 291 291 292 292 292 293 294 293 293 292 291 292 294 293 294 293 291 289 289 289 288 289 288 287 287
279 281 279 281 280 277 278 281 284 279 274 280 281 280 280 279 282 284 286 287 288 288 288 288 291 291 291 292 292 290 291 293 294 290 289 288 288 288 290 288 286 286 285 285
275 273 273 274 276 274 280 280 274 278 282 281 281 281 280 281 282 282 283 283 283 283 284 284 286 287 289 289 289 288 289 292 291 289 288 287 287 287 287 287 284 284 284 283
273 274 271 275 275 281 281 280 282 282 280 281 281 281 281 280 280 281 281 281 281 281 281 281 282 282 284 284 285 285 287 288 289 287 286 285 283 285 286 286 284 283 283 283
276 276 273 273 279 281 281 282 281 282 281 281 281 280 280 279 279 278 279 279 279 279 279 279 279 278 279 280 282 283 284 285 284 285 285 284 285 284 284 285 285 285 284 283
273 275 275 275 279 280 281 280 279 280 280 279 278 277 277 277 278 277 277 278 278 278 278 278 277 277 277 278 279 280 282 282 283 283 284 284 286 285 284 285 285 285 286 286
274 273 270 271 276 276 278 278 277 276 276 276 274 274 275 276 276 275 275 275 276 275 276 275 275 275 275 276 276 277 279 280 280 283 282 283 285 285 286 285 284 288 288 288
Wind_Speed
6 5 7 11 11 8 8 6 9 8 4 1 7 18 18 18 13 12 10 9 10 10 9 10 9 10 8 6 4 2 3 3 2 3 3 2 3 4 4 3 3 1 2 2
4 9 10 9 2 4 7 5 7 8 7 2 9 17 23 21 12 3 5 5 9 8 10 11 11 8 7 7 5 3 4 3 2 3 2 2 3 4 4 3 3 2 3 4
7 2 1 6 4 5 5 6 3 5 7 10 9 12 6 2 2 3 1 4 6 3 11 12 10 9 7 6 6 4 3 3 3 4 3 3 4 3 3 5 3 3 3 3
8 7 4 4 5 8 6 3 8 2 3 4 0 10 8 9 6 7 7 7 5 3 7 9 9 8 8 6 5 5 3 3 3 4 4 4 2 3 3 3 1 1 4 4
4 2 5 7 5 8 2 3 2 2 4 7 2 1 10 8 5 5 6 7 6 7 7 9 9 9 7 7 6 5 3 5 4 3 4 3 4 3 3 2 4 2 2 6
1 2 3 1 6 6 9 3 3 3 3 2 8 7 8 4 2 3 4 6 7 7 8 9 8 8 7 5 5 4 4 4 5 3 4 3 4 5 4 4 3 1 1 2
7 5 2 1 5 2 3 3 2 4 1 7 2 2 13 5 4 6 9 9 8 7 8 9 9 8 8 8 6 4 4 5 5 4 4 2 4 4 4 4 3 3 1 2
10 4 11 8 5 7 9 5 6 6 4 2 3 7 10 3 5 6 8 9 8 8 8 8 9 8 8 8 7 6 4 5 4 5 3 2 3 2 2 3 3 3 3 3
7 5 5 4 3 3 6 6 1 1 2 3 7 8 9 4 4 5 8 9 9 9 9 9 9 8 8 7 7 7 6 5 4 5 3 3 2 3 3 3 3 2 3 3
4 1 1 3 3 3 2 1 3 3 3 6 6 6 8 5 8 8 8 9 9 9 9 9 8 8 7 7 7 7 5 5 5 5 4 3 3 3 2 2 4 4 3 2
3 3 3 5 9 9 3 3 5 2 4 5 2 6 2 2 2 10 10 10 10 10 10 8 8 7 8 7 7 7 7 7 6 5 5 5 4 3 2 1 3 3 2 1
10 2 5 7 3 1 6 7 7 5 5 5 3 8 2 5 3 3 7 10 9 9 9 9 9 8 8 8 7 7 7 6 7 6 5 5 4 3 4 2 3 3 3 3
6 5 3 2 1 2 6 8 9 5 2 7 6 5 1 3 1 4 5 7 8 9 10 9 9 9 8 8 8 7 7 7 7 7 6 5 5 4 5 4 4 1 3 2
7 2 8 5 1 4 6 10 13 12 5 4 17 6 2 2 4 5 5 5 7 7 8 8 8 9 9 8 8 8 7 7 7 7 7 7 6 5 5 4 4 4 2 3
2 4 3 13 3 1 4 6 13 20 18 11 3 12 9 4 4 4 7 5 6 7 8 9 9 8 8 8 8 8 8 8 7 7 7 6 6 5 5 5 5 5 5 3
4 3 0 5 9 4 5 8 11 18 19 20 17 22 14 7 6 5 3 6 7 8 9 8 8 9 10 10 9 8 8 9 8 8 8 7 6 6 6 5 5 5 5 6
5 4 2 4 2 6 7 15 17 9 7 10 16 14 12 17 16 13 8 8 8 9 9 9 10 11 10 10 10 11 9 7 8 8 8 10 8 7 7 6 6 6 6 5
2 3 2 1 3 6 2 11 6 12 16 17 15 17 16 16 16 13 9 13 10 7 6 7 7 7 8 8 8 7 8 9 10 9 9 10 10 8 8 7 7 6 5 6
13 3 3 4 5 7 5 10 9 7 10 15 15 17 19 22 14 6 23 15 15 10 10 7 6 4 3 7 9 8 8 8 9 11 11 10 10 9 9 8 7 5 5 4
10 6 4 3 4 5 5 14 11 8 6 15 15 17 18 19 8 10 26 19 18 16 14 14 10 7 8 6 6 7 7 7 10 10 9 9 9 11 11 10 10 5 4 5
3 1 10 10 6 4 10 14 8 4 6 11 13 13 14 11 10 15 18 19 18 17 19 18 15 10 9 9 3 6 6 8 8 6 7 7 9 10 10 9 5 7 6 6
4 3 3 3 4 4 14 7 9 2 4 6 8 9 11 11 14 15 16 17 18 19 19 19 15 14 14 14 9 6 5 4 5 7 7 7 7 6 6 9 5 6 7 7
1 2 2 4 2 5 8 12 7 3 1 4 6 7 8 11 12 15 14 15 15 16 15 15 14 13 13 15 14 11 8 7 6 5 7 6 5 5 6 9 8 5 6 6
2 2 2 3 3 5 6 6 3 0 2 5 6 9 9 10 10 12 11 11 12 13 14 13 14 14 14 14 13 12 13 11 6 4 5 6 8 6 6 4 6 7 8 7
4 3 2 4 1 1 6 5 3 4 2 5 7 8 10 11 10 9 12 12 11 12 12 12 13 13 13 14 13 13 13 13 10 5 3 5 5 8 7 7 8 9 8 10
3 3 2 1 3 2 2 6 5 5 8 8 8 12 11 11 12 11 11 12 12 12 12 12 13 13 13 13 14 13 12 12 11 8 3 3 4 4 6 7 6 11 10 13
Wind_Direction
200 200 206 208 216 256 317 319 295 307 101 283 240 270 277 274 264 261 248 225 205 180 172 146 126 117 125 142 179 106 43 20 24 34 356 5 333 312 301 333 259 248 143 225
148 233 224 223 345 290 247 277 284 292 104 63 278 279 281 274 262 228 321 272 191 153 149 130 120 126 156 170 156 107 53 33 43 51 29 340 289 287 275 294 89 90 144 197
209 73 202 189 169 220 220 220 226 246 337 235 279 281 292 231 129 191 128 42 34 51 143 138 135 145 162 173 143 116 92 61 60 43 33 316 314 298 8 354 113 171 181 144
239 233 152 150 218 195 251 338 200 263 314 258 30 286 296 273 241 191 191 167 175 240 126 141 140 154 169 155 136 124 120 103 85 56 37 340 331 346 356 326 335 149 145 140
228 191 171 197 184 189 176 48 116 227 244 314 207 67 267 268 286 224 167 162 163 180 163 145 145 154 153 143 154 138 137 119 107 81 57 321 356 338 338 340 22 148 156 127
310 320 270 266 61 43 123 130 195 234 226 287 233 163 286 243 197 132 126 148 158 170 148 134 141 131 142 150 152 149 142 140 130 104 77 7 13 345 16 16 10 132 144 214
184 191 102 201 93 56 208 156 293 340 2 228 108 151 245 290 206 191 175 165 165 166 137 145 147 157 165 171 164 168 163 145 133 113 94 49 40 342 25 17 1 6 117 141
176 213 159 182 204 179 184 199 177 220 209 272 113 232 251 180 79 92 135 146 152 161 156 159 169 178 172 171 167 170 158 140 133 123 117 102 75 340 2 37 9 19 33 1
187 208 54 153 37 124 182 214 298 349 56 49 225 261 300 122 142 147 150 149 169 176 172 173 176 179 169 170 178 177 160 144 149 148 150 135 110 62 346 37 36 38 33 25
298 132 166 95 10 270 286 234 99 298 192 253 243 233 238 225 226 190 189 181 177 177 179 177 178 177 172 173 174 164 167 166 165 163 160 159 166 111 14 37 65 41 35 29
205 222 129 114 206 182 165 208 234 202 215 198 302 259 237 110 141 190 191 188 182 180 180 179 176 175 176 169 172 179 183 168 170 179 165 165 188 149 99 55 102 77 83 105
204 284 202 195 120 341 246 210 189 156 228 238 149 256 173 123 94 69 180 184 181 173 171 171 174 173 178 179 180 187 187 184 170 167 172 165 187 163 132 88 101 82 102 68
152 218 137 273 358 190 217 204 231 250 71 220 152 262 341 104 187 228 250 173 168 166 168 171 172 183 185 186 185 188 189 190 163 160 167 166 185 185 154 155 129 138 113 88
355 209 231 193 96 118 195 196 207 204 201 149 229 264 28 260 246 213 239 181 179 176 176 178 181 188 188 188 186 185 188 183 168 169 170 172 177 190 163 160 144 151 177 144
49 254 290 280 248 212 209 188 203 214 217 196 266 231 246 282 349 217 191 183 174 195 202 204 200 195 189 191 191 184 183 181 168 166 169 180 168 162 165 171 169 159 166 188
166 285 213 267 238 251 237 228 209 227 237 259 276 282 285 318 354 349 149 170 207 216 221 211 200 191 198 201 199 193 188 179 168 170 174 161 163 166 173 175 174 173 173 169
195 183 194 259 143 99 274 238 220 208 201 233 242 273 311 323 345 339 338 302 267 238 223 209 205 202 200 199 193 200 188 168 176 175 172 163 165 176 172 165 172 179 179 166
269 177 198 296 152 216 238 27 253 173 48 14 0 355 352 340 324 299 331 336 307 307 262 238 209 207 203 185 190 188 185 181 179 183 181 171 164 171 165 167 176 180 169 172
220 176 240 231 216 319 72 25 9 22 65 19 359 353 346 334 309 80 360 350 4 14 10 11 14 358 338 194 185 180 187 186 182 193 189 177 171 167 166 172 175 162 155 152
215 212 202 212 235 235 11 321 314 305 105 11 6 2 354 348 17 354 342 356 3 15 13 2 352 357 347 328 185 178 191 189 197 202 194 175 173 174 176 175 171 161 160 160
12 321 230 237 250 82 330 330 302 187 50 7 357 2 358 360 336 335 338 359 8 10 9 2 358 5 350 338 269 208 201 209 209 190 177 175 182 183 182 170 154 154 152 144
15 331 356 336 302 186 345 33 67 14 29 350 348 348 348 350 351 351 351 356 358 0 3 3 2 2 8 1 348 316 273 263 212 183 181 183 182 179 165 164 158 155 154 160
262 42 304 331 33 100 68 101 119 121 2 322 317 330 339 343 350 351 350 354 355 356 357 358 358 356 2 2 356 343 318 310 262 187 185 177 161 176 174 169 168 153 166 175
157 175 263 356 85 219 113 127 121 314 5 351 335 324 337 336 341 341 339 345 349 352 355 353 355 356 353 353 349 343 337 323 299 224 193 176 178 180 183 174 177 179 182 185
208 194 231 244 12 49 137 97 32 2 11 351 340 336 337 332 335 337 330 336 338 341 345 351 351 345 342 341 343 344 341 340 322 288 221 200 201 193 192 205 194 199 207 194
234 249 177 334 66 2 1 45 50 5 342 352 347 329 331 326 328 335 326 329 330 334 338 340 341 335 334 334 338 338 341 343 333 312 277 236 206 201 209 205 222 228 224 205